This is the latest recevied weather packets stored in our database for station/object KD8TSA. If no packets are shown the sender has not sent any weather packets the latest 10 day(s).
| Time | Temp. | Humidity | Pressure | Rain* | Wind** | Luminosity | Snow |
|---|---|---|---|---|---|---|---|
| 1778008959 | 21.11° C | 71% | 1007.5 hPa | 0 mm | - | 235 W/m² | - |
| 1778008657 | 21.11° C | 71% | 1008 hPa | 0 mm | - | 215 W/m² | - |
| 1778008355 | 21.11° C | 69% | 1008 hPa | 0 mm | - | 236 W/m² | - |
| 1778008051 | 21.11° C | 70% | 1007.9 hPa | 0 mm | - | 255 W/m² | - |
| 1778007751 | 21.11° C | 69% | 1008.1 hPa | 0 mm | - | 263 W/m² | - |
| 1778004720 | 21.67° C | 68% | 1008.5 hPa | 0 mm | - | 377 W/m² | - |
| 1778002595 | 21.67° C | 68% | 1008.6 hPa | 0 mm | - | 412 W/m² | - |
| 1778002292 | 21.67° C | 68% | 1008.5 hPa | 0 mm | - | 436 W/m² | - |
| 1778001989 | 21.11° C | 68% | 1008.6 hPa | 0 mm | - | 468 W/m² | - |
| 1778001686 | 21.11° C | 68% | 1008.7 hPa | 0 mm | - | 436 W/m² | - |
| 1778001380 | 21.11° C | 69% | 1008.8 hPa | 0 mm | - | 398 W/m² | - |
| 1778000775 | 20.56° C | 71% | 1008.8 hPa | 0 mm | - | 327 W/m² | - |
| 1777998954 | 20° C | 70% | 1008.8 hPa | 0 mm | - | 146 W/m² | - |
| 1777998651 | 20° C | 70% | 1008.7 hPa | 0 mm | - | 178 W/m² | - |
| 1777998344 | 20.56° C | 70% | 1008.7 hPa | 0 mm | - | 161 W/m² | - |
| 1777997133 | 20.56° C | 69% | 1008.6 hPa | 0 mm | - | 434 W/m² | - |
| 1777995313 | 20.56° C | 70% | 1008.5 hPa | 0 mm | - | 556 W/m² | - |
| 1777995009 | 20.56° C | 71% | 1008.9 hPa | 0 mm | - | 459 W/m² | - |
| 1777994707 | 20° C | 70% | 1008.6 hPa | 0 mm | - | 519 W/m² | - |
| 1777994097 | 19.44° C | 72% | 1008.6 hPa | 0 mm | - | 533 W/m² | - |
| 1777993795 | 19.44° C | 72% | 1008.5 hPa | 0 mm | - | 379 W/m² | - |
| 1777993491 | 19.44° C | 73% | 1008.5 hPa | 0 mm | - | 324 W/m² | - |
| 1777993191 | 18.89° C | 73% | 1008.5 hPa | 0 mm | - | 292 W/m² | - |
| 1777992889 | 19.44° C | 73% | 1008.3 hPa | 0 mm | - | 212 W/m² | - |
| 1777992285 | 18.89° C | 74% | 1008 hPa | 0 mm | - | 238 W/m² | - |
* Rain latest hour (hover to see other rain measurements)
** Current wind speed in m/s (hover to see current wind gust speed)